[[{"header":{"parameterUnit":"m.s-1","parameterCategory":1,"la1":30.2991,"la2":30.254,"lo1":-89.0895,"lo2":-89.0444,"dy":0.0017,"dx":0.0017,"nx":28,"ny":28,"refTime":"2024-04-15T03:00:00:Z","depth":0,"parameterNumber":2,"parameterNumberName":"U-component_of_WINDS"},"data":[0,0,0,0,0,0,0,0,0,0,0,0,0,0,0,0,0,0,0,0,0,0,0,0,0,0,0,0,0,0,0,0,0,0,0,0,0,0,0,0,0,0,0,0,0,0,0,0,0,0,0,0,0,0,0,0,0,0,-3.6065,-3.6066,0,-3.6153,-3.6154,-3.6155,-3.6142,-3.614,-3.6139,-3.6137,-3.6227,-3.6231,-3.6234,0,0,0,0,0,0,0,0,0,0,0,0,0,-3.5888,-3.5891,-3.6065,-3.6066,-3.6067,-3.6153,-3.6154,-3.6155,-3.6142,-3.614,-3.6138,-3.6137,-3.6226,-3.623,-3.6235,0,0,0,0,0,0,0,0,0,0,0,0,0,-3.5969,-3.5892,-3.6065,-3.6071,-3.6073,-3.6152,-3.6154,-3.6155,-3.6142,-3.614,-3.6138,-3.6136,-3.6224,-3.623,-3.6235,-3.6315,0,0,-3.6253,-3.6255,0,0,0,0,0,0,0,0,-3.5964,-3.5976,-3.6069,-3.6071,-3.6073,-3.6134,-3.6124,-3.6209,-3.6143,-3.6116,-3.6137,-3.6135,-3.6198,-3.6206,-3.6227,-3.6319,-3.6323,-3.6253,-3.6256,-3.6259,-3.626,0,0,0,0,0,0,0,-3.5959,-3.5972,-3.61,-3.6071,-3.6073,-3.607,-3.6079,-3.614,-3.6168,-3.6118,-3.6117,-3.6128,-3.6198,-3.6221,-3.6229,-3.6324,-3.6253,-3.6258,-3.6261,-3.6264,-3.6486,-3.6488,0,0,0,0,0,0,-3.5951,-3.5967,-3.6097,-3.6103,-3.6012,-3.6075,-3.6085,-3.6117,-3.6168,-3.6173,-3.613,-3.6127,-3.6213,-3.6222,-3.6232,-3.6327,-3.6259,-3.6264,-3.6267,-3.6483,-3.6486,-3.6489,0,0,0,0,0,0,-3.5948,-3.5963,-3.6094,-3.6035,-3.6051,-3.608,-3.6116,-3.612,-3.6142,-3.6176,-3.6181,-3.6148,-3.6211,-3.6224,-3.6294,-3.633,-3.6267,-3.6272,-3.648,-3.6484,-3.6487,-3.6519,0,0,0,0,0,0,-3.5943,-3.5962,-3.5992,-3.6036,-3.6054,-3.6154,-3.6118,-3.6123,-3.6152,-3.6149,-3.6195,-3.62,-3.6211,-3.6286,-3.63,-3.6337,-3.6276,-3.6477,-3.6482,-3.6486,-3.6515,-3.6523,-3.6531,0,0,0,0,0,-3.5936,-3.5997,-3.5993,-3.6009,-3.6092,-3.6156,-3.6167,-3.6178,-3.6155,-3.6186,-3.6208,-3.6199,-3.6325,-3.6293,-3.6309,-3.6348,-3.6475,-3.648,-3.6486,-3.6511,-3.6522,-3.6531,0,0,0,0,0,0,-3.5957,-3.6003,-3.5999,-3.6076,-3.6112,-3.6154,-3.6192,-3.6189,-3.6232,-3.6227,-3.6239,-3.625,-3.632,-3.6342,-3.6306,-3.6428,-3.6397,-3.6406,-3.641,-3.6421,-3.6428,-3.6421,-3.6281,0,0,0,0,0,-3.597,-3.6018,-3.6056,-3.612,-3.6139,-3.6163,-3.6191,-3.6196,-3.6234,-3.6249,-3.6276,-3.6314,-3.6362,-3.6393,-3.6439,-3.6519,-3.6528,-3.6554,-3.6562,-3.6568,-3.6575,-3.6618,-3.663,-3.6507,-3.6507,-3.6507,0,0,-3.5999,-3.603,-3.6059,-3.6125,-3.6154,-3.6203,-3.6175,-3.6229,-3.6265,-3.6258,-3.6325,-3.6347,-3.6389,-3.6464,-3.6499,-3.6484,-3.6612,-3.6575,-3.658,-3.6584,-3.6625,-3.6637,-3.6647,-3.6511,-3.651,-3.651,0,0,-3.6074,-3.6104,-3.616,-3.6189,-3.6233,-3.6249,-3.6263,-3.6306,-3.6319,-3.6388,-3.6383,-3.6427,-3.651,-3.654,-3.6566,-3.6656,-3.6649,-3.6671,-3.6711,-3.6753,-3.6763,-3.6771,-3.6802,-3.6813,-3.6678,-3.6678,-3.6678,0,-3.6103,-3.6177,-3.6189,-3.6243,-3.6272,-3.6269,-3.6325,-3.6354,-3.6411,-3.6431,-3.6414,-3.6518,-3.6546,-3.6628,-3.665,-3.6672,-3.6688,-3.6664,-3.6761,-3.6769,-3.6777,-3.6807,-3.6818,-3.668,-3.668,-3.668,-3.668,0,-3.621,-3.6262,-3.6302,-3.6357,-3.6391,-3.6446,-3.6467,-3.65,-3.6504,-3.6521,-3.6591,-3.6626,-3.6678,-3.6699,-3.6703,-3.6782,-3.6771,-3.6758,-3.6726,-3.6791,-3.6818,-3.683,-3.6684,-3.6683,-3.6682,-3.6682,0,0,-3.6298,-3.6361,-3.6375,-3.64,-3.6449,-3.6489,-3.6545,-3.6597,-3.6624,-3.6665,-3.6711,-3.6782,-3.677,-3.68,-3.6808,-3.6845,-3.6912,-3.6827,-3.6828,-3.684,-3.7,-3.7008,-3.7021,-3.6909,-3.6912,-3.6913,-3.6996,0,-3.6377,-3.6475,-3.6488,-3.6574,-3.6622,-3.662,-3.6669,-3.6704,-3.6723,-3.6766,-3.6788,-3.6837,-3.6818,-3.6836,-3.6873,-3.6896,-3.6944,-3.6891,-3.6951,-3.6953,-3.6938,-3.7036,-3.7044,-3.712,-3.7007,-3.7009,-3.701,0,-3.6481,-3.6524,-3.6615,-3.6658,-3.6679,-3.6722,-3.6771,-3.6813,-3.6854,-3.6865,-3.6899,-3.6902,-3.696,-3.6929,-3.7008,-3.6972,-3.6998,-3.7013,-3.7017,-3.702,-3.6984,-3.704,-3.7145,-3.7156,-3.7028,-3.7026,-3.7025,0,-3.6534,-3.6615,-3.668,-3.6702,-3.6754,-3.6784,-3.6808,-3.6847,-3.6877,-3.6921,-3.694,-3.699,-3.7017,-3.7055,-3.7072,-3.7048,-3.715,-3.7121,-3.716,-3.716,-3.7179,-3.7177,-3.7288,-3.7201,-3.7201,-3.72,-3.72,0,-3.6619,-3.6675,-3.6704,-3.6744,-3.6806,-3.6822,-3.6883,-3.6905,-3.694,-3.6984,-3.6987,-3.7029,-3.705,-3.7094,-3.7108,-3.7171,-3.7184,-3.7194,-3.7197,-3.7192,-3.7191,-3.7207,-3.7202,-3.7203,-3.7203,-3.7202,-3.7202,0,-3.6687,-3.671,-3.678,-3.6824,-3.6837,-3.6881,-3.6919,-3.6957,-3.6977,-3.7033,-3.7047,-3.7077,-3.713,-3.7152,-3.7216,-3.7226,-3.7298,-3.7298,-3.7284,-3.7284,-3.7321,-3.7317,-3.7444,-3.7461,-3.7365,-3.7366,-3.7367,0,-3.6739,-3.6781,-3.6831,-3.686,-3.6884,-3.6932,-3.6964,-3.6982,-3.7014,-3.7065,-3.7098,-3.7151,-3.7193,-3.7278,-3.7306,-3.7356,-3.7355,-3.7397,-3.7362,-3.7357,-3.7353,-3.7349,-3.7353,-3.7402,-3.7403,-3.7404,-3.7404,0,-3.6827,-3.6836,-3.6881,-3.693,-3.6968,-3.7007,-3.7046,-3.7071,-3.7095,-3.7131,-3.7185,-3.7219,-3.7286,-3.7338,-3.7389,-3.7414,-3.7413,-3.7415,-3.7427,-3.7421,-3.741,-3.7415,-3.7298,-3.7411,-3.7411,-3.741,-3.741,-3.741,-3.6887,-3.6924,-3.6965,-3.7015,-3.7046,-3.7083,-3.7121,-3.7146,-3.7191,-3.7246,-3.7255,-3.7313,-3.7354,-3.7423,-3.745,-3.7495,-3.7484,-3.7501,-3.7505,-3.7508,-3.751,-3.7406,-3.7505,-3.7505,-3.7505,-3.7504,-3.7504,0,-3.6973,-3.7,-3.7046,-3.71,-3.714,-3.7137,-3.718,-3.7213,-3.7264,-3.7302,-3.7345,-3.7407,-3.7458,-3.7491,-3.7543,-3.7573,-3.7574,-3.7585,-3.7582,-3.7587,-3.7518,-3.7501,-3.7584,-3.7584,-3.7584,-3.7584,-3.7584,-3.7584,-3.7023,-3.7086,-3.71,-3.7179,-3.7205,-3.7262,-3.7286,-3.732,-3.7351,-3.742,-3.7462,-3.7484,-3.752,-3.7575,-3.7622,-3.763,-3.7648,-3.766,-3.7667,-3.7601,-3.7592,-3.7584,-3.7569,-3.7665,-3.7665,-3.7733,-3.7734,-3.7734]},{"header":{"parameterUnit":"m.s-1","parameterCategory":1,"la1":30.2991,"la2":30.254,"lo1":-89.0895,"lo2":-89.0444,"dy":0.0017,"dx":0.0017,"nx":28,"ny":28,"refTime":"2024-04-15T03:00:00:Z","depth":0,"parameterNumber":3,"parameterNumberName":"V-component_of_WINDS"},"data":[0,0,0,0,0,0,0,0,0,0,0,0,0,0,0,0,0,0,0,0,0,0,0,0,0,0,0,0,0,0,0,0,0,0,0,0,0,0,0,0,0,0,0,0,0,0,0,0,0,0,0,0,0,0,0,0,0,0,3.2789,3.2788,0,3.276,3.276,3.276,3.2718,3.2717,3.2716,3.2715,3.2684,3.2684,3.2684,0,0,0,0,0,0,0,0,0,0,0,0,0,3.2806,3.2806,3.2789,3.2788,3.2788,3.276,3.276,3.276,3.2718,3.2717,3.2716,3.2715,3.2685,3.2684,3.2684,0,0,0,0,0,0,0,0,0,0,0,0,0,3.279,3.2806,3.2789,3.2764,3.2761,3.276,3.276,3.2759,3.2718,3.2717,3.2716,3.2715,3.2685,3.2684,3.2684,3.2705,0,0,3.2684,3.2683,0,0,0,0,0,0,0,0,3.2791,3.2789,3.2768,3.2766,3.2763,3.2741,3.2755,3.2741,3.2718,3.2734,3.2715,3.2714,3.2704,3.2702,3.2699,3.2704,3.2702,3.2684,3.2683,3.2683,3.2683,0,0,0,0,0,0,0,3.2792,3.279,3.2777,3.2768,3.2764,3.2754,3.275,3.2752,3.2726,3.2733,3.273,3.2727,3.2703,3.27,3.2698,3.2702,3.2684,3.2683,3.2683,3.2683,3.2722,3.2723,0,0,0,0,0,0,3.2797,3.2792,3.2778,3.2777,3.2775,3.2754,3.275,3.2749,3.2726,3.2721,3.2728,3.2725,3.2701,3.2699,3.2697,3.272,3.2683,3.2683,3.2683,3.2721,3.2723,3.2724,0,0,0,0,0,0,3.2798,3.2796,3.2779,3.2783,3.278,3.2755,3.2754,3.2749,3.2746,3.2722,3.2717,3.273,3.27,3.2697,3.2704,3.2718,3.2683,3.2683,3.272,3.2722,3.2723,3.2766,0,0,0,0,0,0,3.2798,3.2797,3.2805,3.2784,3.278,3.2787,3.2755,3.275,3.2746,3.2742,3.2722,3.2718,3.2699,3.2704,3.2703,3.2718,3.2683,3.2718,3.2721,3.2723,3.2764,3.2769,3.2775,0,0,0,0,0,3.2799,3.2817,3.2805,3.2804,3.279,3.2788,3.2786,3.2764,3.2748,3.2755,3.274,3.2719,3.2717,3.2705,3.2704,3.2718,3.2717,3.272,3.2722,3.2761,3.2768,3.2774,0,0,0,0,0,0,3.284,3.2814,3.28,3.2812,3.2803,3.2781,3.2789,3.2772,3.2766,3.2762,3.2734,3.273,3.274,3.273,3.2717,3.2738,3.2714,3.2717,3.2744,3.275,3.2756,3.2758,3.2683,0,0,0,0,0,3.285,3.2851,3.2829,3.2842,3.2838,3.2815,3.2813,3.2797,3.2785,3.2781,3.2766,3.2755,3.2752,3.2751,3.2747,3.2762,3.2757,3.2771,3.2777,3.2782,3.2784,3.2792,3.2798,3.2732,3.2732,3.2732,0,0,3.2872,3.2858,3.286,3.285,3.284,3.2842,3.2811,3.2814,3.2815,3.2781,3.2786,3.2775,3.2761,3.2772,3.2777,3.2764,3.2801,3.2785,3.2789,3.2788,3.2795,3.2801,3.2807,3.2734,3.2734,3.2734,0,0,3.2912,3.2901,3.2911,3.2903,3.2889,3.2874,3.2876,3.2857,3.2849,3.2854,3.2829,3.2829,3.2825,3.2816,3.2811,3.2849,3.283,3.2849,3.2877,3.2885,3.289,3.2895,3.2908,3.2914,3.2851,3.2851,3.2851,0,3.294,3.2942,3.2918,3.2923,3.2919,3.289,3.29,3.2892,3.2878,3.2876,3.2862,3.2857,3.2845,3.2854,3.2864,3.2861,3.2863,3.2851,3.2892,3.2896,3.29,3.2912,3.2918,3.2854,3.2854,3.2853,3.2853,0,3.2977,3.2979,3.2988,3.2976,3.2973,3.2981,3.2959,3.2959,3.2943,3.2929,3.2935,3.2921,3.2914,3.2915,3.2899,3.2922,3.2914,3.2897,3.2872,3.2909,3.292,3.2925,3.2857,3.2856,3.2856,3.2855,0,0,3.3041,3.3017,3.3021,3.3015,3.2998,3.2999,3.3005,3.2999,3.3,3.2991,3.2995,3.2993,3.2977,3.2971,3.2955,3.2962,3.2993,3.2943,3.2942,3.2953,3.3018,3.3031,3.3037,3.2981,3.2982,3.2982,3.3019,0,3.3077,3.3087,3.3067,3.3081,3.3082,3.3055,3.306,3.305,3.3038,3.3037,3.3023,3.3022,3.3001,3.2997,3.3003,3.2988,3.3006,3.2985,3.2984,3.2984,3.2988,3.3043,3.3057,3.3092,3.3023,3.3024,3.3024,0,3.3121,3.3116,3.313,3.3113,3.3113,3.3118,3.3111,3.3111,3.31,3.309,3.3085,3.3066,3.3071,3.3048,3.3054,3.3041,3.3039,3.3032,3.3033,3.3031,3.3006,3.3043,3.3103,3.3108,3.3031,3.3031,3.303,0,3.3166,3.3163,3.3171,3.3167,3.3148,3.3152,3.3144,3.3132,3.313,3.3123,3.3122,3.3116,3.3113,3.3109,3.3089,3.3074,3.3098,3.3073,3.309,3.309,3.3095,3.3095,3.3156,3.3095,3.3095,3.3095,3.3095,0,3.3209,3.3219,3.3191,3.3196,3.3207,3.3184,3.3195,3.3184,3.3173,3.3176,3.3152,3.3154,3.3128,3.3128,3.3112,3.312,3.3119,3.3111,3.3107,3.3113,3.3114,3.3111,3.3108,3.3096,3.3096,3.3096,3.3095,0,3.3261,3.3243,3.325,3.3232,3.3227,3.3236,3.322,3.3224,3.321,3.3214,3.3213,3.3192,3.3191,3.3171,3.3165,3.3154,3.3168,3.3159,3.3172,3.3169,3.3187,3.3186,3.3247,3.3254,3.319,3.319,3.3191,0,3.329,3.3297,3.328,3.328,3.3273,3.3274,3.3272,3.3249,3.3248,3.3236,3.3242,3.3239,3.3235,3.3234,3.3218,3.3214,3.3204,3.3226,3.3203,3.321,3.3205,3.3204,3.3205,3.3231,3.3232,3.3233,3.3233,0,3.3342,3.3333,3.3331,3.3326,3.3325,3.332,3.3313,3.3315,3.329,3.329,3.3289,3.3286,3.3281,3.3278,3.3271,3.3263,3.3244,3.3241,3.3244,3.3251,3.3258,3.3254,3.3185,3.3239,3.3239,3.3238,3.3238,3.3238,3.3383,3.3389,3.3377,3.3376,3.3369,3.3364,3.3367,3.3354,3.3353,3.3347,3.3334,3.3335,3.3324,3.3313,3.3306,3.3306,3.3295,3.33,3.3301,3.3303,3.3307,3.3258,3.3305,3.3305,3.3305,3.3304,3.3304,0,3.3435,3.3426,3.3425,3.3417,3.3417,3.34,3.3392,3.3392,3.3394,3.3385,3.3383,3.3382,3.3379,3.3363,3.3359,3.3362,3.3354,3.3362,3.3361,3.336,3.3317,3.3314,3.3369,3.3369,3.3369,3.3369,3.3369,3.3369,3.3461,3.3469,3.3459,3.3464,3.3455,3.3456,3.3453,3.3448,3.3441,3.3441,3.3439,3.3429,3.3418,3.3413,3.341,3.3405,3.3405,3.3416,3.3408,3.3369,3.3362,3.3356,3.3354,3.3416,3.3416,3.3451,3.3451,3.3451]}]]